Aérodrome :
LOGIN :

S'inscrire | Disclaimer

   EN    FR    IT 

 










Légende :    VFR   VFR Marginal   IFR   IFR Intensif   IFR Très Intensif
Visi : 
Plafond : 
>= 8 km
>= 3000ft
5 à 8 km
1000 à 3000 ft
1500m à 5 km
500 à 1000 ft
800 à 1500m
200 à 500 ft
< 800m
< 200 ft
Symboles :   Orages  Brouillard  Fortes neiges  Fortes précipitations  Vent > 20 kt
SIGMETs :   Divers  Orages  Givrage  Turbulence  Onde Orograph.  Cendres Volcan.






- Altitude de l'aérodrome : 142 ft
- Code IATA : ALC


LEAL - Alicante

DERNIER METAR :
  • 270600Z 23004KT CAVOK 18/14 Q1020 NOSIG

METARs EXPIRÉS :
  • 270530Z 27005KT CAVOK 19/14 Q1020 NOSIG
  • 270500Z 26004KT 220V280 CAVOK 19/14 Q1020 NOSIG
  • 270430Z 29005KT CAVOK 19/14 Q1019 NOSIG
  • 270400Z 29004KT CAVOK 19/14 Q1019 NOSIG
  • 270330Z 29005KT CAVOK 19/15 Q1020 NOSIG

TAF TAF LEAL
Valide du 27 à 06h jusqu'au 28 à 06h UTC


270500Z 2706/2806 30005KT CAVOK TX30/2712Z TN18/2706Z
BECMG 2710/2712 17010KT
BECMG 2717/2719 VRB03KT
PROB30
TEMPO 2803/2806 BKN010



MET'MAP, la Météo Aéronautique d'un coup d'oeil ! - Copyright ORBIFLY Décembre 2007 - Disclaimer

ORBIFLY MET'MAP TEAM :

Programmation & Développement : Alexandra Zaïnal
Sur une idée originale de : Baudouin d'Aumeries
Assistance à la programmation : Marc-Olivier Méhu
Soutien technique & logistique : Manuel Goepfert

Contact : metmap@orbifly.com




SOURCES & CREDITS :

   NOAA